Etusivu
METAR-TAF:

METAR-TAF

Lentoasemat :

Copper Harbor, Michigan, Yhdysvallat

Leveyspiiri: 47-28-01N, Pituuspiiri: 087-52-30W, korkeus merenpinnasta: 190 m

Tämänhetkinen sää

Tämä raportti tehtiin 23 minuuttia sitten, kello 13.51 UTC
Tuuli 5 kn lännestä/luoteesta
Lämpötila -11°C
Kosteus 66%
Ilmanpaine 1035 hPa

METAR: KP59 201351Z AUTO 29005KT M11/M16 A3056 RMK AO1 SLP371 T11061156

Aika: 09:14 (14:14 UTC)


TAF: puuttuu

Säähavainnot ja -ennusteet yli 4000 lentoasemalta (METAR- ja TAF-raportit).

Käytössä olevat sääasemat on merkitty karttaan keltaisilla ja punaisilla pisteillä.

Aseta hiiri pisteen päälle nähdäksesi sääaseman nimen.

Klikkaa sitten nähdäksesi säähavainnot ja -ennusteet.

Kartan vaihtaminen: klikkaa mustalla rastilla varustettuja vihreitä pisteitä, niin voit zoomata sisään; viivalla varustettua vihreää pistettä, niin voit zoomata ulos tai vihreitä nuolia, niin pääset viereisille kartoille.


METAR-TAF: